13-08-2023, 00:00:07,    236,    0.2,   14.1,   0.00,   0.00, 1010.8,    0.2, -999.0
13-08-2023, 00:00:18,    234,    1.3,   14.1,   0.00,   0.00, 1010.8,    0.2, -999.0
13-08-2023, 00:00:27,    234,    0.9,   14.1,   0.00,   0.00, 1010.9,    0.3, -999.0
13-08-2023, 00:00:37,    234,    0.4,   14.1,   0.00,   0.00, 1010.9,    0.1, -999.0
13-08-2023, 00:00:48,    226,    0.5,   14.1,   0.00,   0.00, 1010.9,    0.4, -999.0
13-08-2023, 00:00:57,    222,    0.4,   14.1,   0.00,   0.00, 1010.8,    0.2, -999.0
13-08-2023, 00:01:07,    222,    0.4,   14.1,   0.00,   0.00, 1010.9,    0.3, -999.0
13-08-2023, 00:01:17,    216,    0.2,   14.0,   0.00,   0.00, 1010.8,    0.4, -999.0
13-08-2023, 00:01:27,    253,    0.4,   14.0,   0.00,   0.00, 1010.8,    0.5, -999.0
13-08-2023, 00:01:37,    250,    0.9,   14.1,   0.00,   0.00, 1010.9,    0.4, -999.0
13-08-2023, 00:01:47,    205,    0.3,   14.1,   0.00,   0.00, 1010.8,    0.2, -999.0
13-08-2023, 00:01:57,    205,    0.0,   14.0,   0.00,   0.00, 1010.8,    0.2, -999.0
13-08-2023, 00:02:07,    210,    1.6,   14.0,   0.00,   0.00, 1010.9,    0.1, -999.0
13-08-2023, 00:02:17,    194,    0.6,   14.1,   0.00,   0.00, 1010.8,    0.2, -999.0
13-08-2023, 00:02:27,    207,    0.7,   14.0,   0.00,   0.00, 1010.8,    0.1, -999.0
13-08-2023, 00:02:37,    175,    0.8,   14.1,   0.00,   0.00, 1010.8,    0.3, -999.0
13-08-2023, 00:02:47,    265,    1.1,   14.1,   0.00,   0.00, 1010.8,    0.6, -999.0
13-08-2023, 00:02:57,    254,    2.7,   14.0,   0.00,   0.00, 1010.8,    0.6, -999.0
13-08-2023, 00:03:07,    254,    2.8,   14.0,   0.00,   0.00, 1010.8,    0.3, -999.0
13-08-2023, 00:03:17,    174,    0.8,   14.1,   0.00,   0.00, 1010.9,    0.3, -999.0
13-08-2023, 00:03:27,    176,    0.5,   14.1,   0.00,   0.00, 1010.9,    0.3, -999.0
13-08-2023, 00:03:37,    176,    0.0,   13.9,   0.00,   0.00, 1010.7,    0.1, -999.0
13-08-2023, 00:03:47,    176,    0.0,   13.9,   0.00,   0.00, 1010.7,    0.3, -999.0
13-08-2023, 00:03:57,    216,    0.1,   14.0,   0.00,   0.00, 1010.8,    0.1, -999.0
13-08-2023, 00:04:07,    216,    0.0,   14.0,   0.00,   0.00, 1010.8,    0.2, -999.0
13-08-2023, 00:04:17,    216,    0.0,   14.0,   0.00,   0.00, 1010.7,    0.3, -999.0
13-08-2023, 00:04:27,    217,    0.0,   14.0,   0.00,   0.00, 1010.7,    0.4, -999.0
13-08-2023, 00:04:37,    204,    0.2,   14.0,   0.00,   0.00, 1010.7,    0.3, -999.0
13-08-2023, 00:04:47,    209,    0.4,   14.0,   0.00,   0.00, 1010.8,    0.2, -999.0
13-08-2023, 00:04:57,    208,    0.1,   14.0,   0.00,   0.00, 1010.8,    0.3, -999.0
13-08-2023, 00:05:07,    204,    0.0,   13.9,   0.00,   0.00, 1010.8,    0.4, -999.0
13-08-2023, 00:05:17,    203,    0.2,   14.0,   0.00,   0.00, 1010.8,    0.3, -999.0
13-08-2023, 00:05:27,    155,    0.0,   13.9,   0.00,   0.00, 1010.7,    0.3, -999.0
13-08-2023, 00:05:37,    185,    0.8,   14.0,   0.00,   0.00, 1010.8,    0.4, -999.0
13-08-2023, 00:05:47,    184,    0.8,   14.0,   0.00,   0.00, 1010.8,    0.5, -999.0
13-08-2023, 00:05:57,    184,    0.2,   14.0,   0.00,   0.00, 1010.7,    0.2, -999.0
13-08-2023, 00:06:07,    184,    0.0,   13.9,   0.00,   0.00, 1010.7,    0.3, -999.0
13-08-2023, 00:06:17,    183,    0.0,   13.9,   0.00,   0.00, 1010.7,    0.3, -999.0
13-08-2023, 00:06:26,    184,    0.0,   13.8,   0.00,   0.00, 1010.7,    0.2, -999.0
13-08-2023, 00:06:37,    199,    1.5,   14.0,   0.00,   0.00, 1010.9,    0.3, -999.0
13-08-2023, 00:06:47,    192,    0.9,   14.0,   0.00,   0.00, 1010.9,    0.5, -999.0
13-08-2023, 00:06:56,    192,    0.0,   13.9,   0.00,   0.00, 1010.7,    0.3, -999.0
13-08-2023, 00:07:06,    192,    0.0,   13.9,   0.00,   0.00, 1010.7,    0.4, -999.0
13-08-2023, 00:07:17,    194,    0.3,   13.9,   0.00,   0.00, 1010.8,    0.4, -999.0
13-08-2023, 00:07:27,    193,    0.7,   14.0,   0.00,   0.00, 1010.9,    0.4, -999.0
13-08-2023, 00:07:36,    193,    0.3,   14.0,   0.00,   0.00, 1010.8,    0.2, -999.0
13-08-2023, 00:07:46,    234,    0.5,   14.0,   0.00,   0.00, 1010.8,    0.2, -999.0
13-08-2023, 00:07:57,    200,    0.0,   13.9,   0.00,   0.00, 1010.7,    0.3, -999.0
13-08-2023, 00:08:06,    200,    0.0,   13.9,   0.00,   0.00, 1010.7,    0.1, -999.0
13-08-2023, 00:08:16,    200,    0.0,   13.9,   0.00,   0.00, 1010.8,    0.1, -999.0
13-08-2023, 00:08:27,    203,    1.2,   13.9,   0.00,   0.00, 1010.8,    0.3, -999.0
13-08-2023, 00:08:36,    202,    0.5,   14.0,   0.00,   0.00, 1010.8,    0.3, -999.0
13-08-2023, 00:08:46,    202,    0.0,   13.8,   0.00,   0.00, 1010.7,    0.1, -999.0
13-08-2023, 00:08:56,    203,    0.1,   13.9,   0.00,   0.00, 1010.8,    0.2, -999.0
13-08-2023, 00:09:06,    203,    0.0,   13.9,   0.00,   0.00, 1010.8,    0.3, -999.0
13-08-2023, 00:09:16,    202,    0.0,   13.8,   0.00,   0.00, 1010.7,    0.2, -999.0
13-08-2023, 00:09:26,    203,    0.2,   13.9,   0.00,   0.00, 1010.8,    0.4, -999.0
13-08-2023, 00:09:36,    212,    1.7,   14.0,   0.00,   0.00, 1010.9,    0.3, -999.0
13-08-2023, 00:09:46,    230,    2.4,   14.0,   0.00,   0.00, 1010.9,    0.4, -999.0
13-08-2023, 00:09:56,    188,    1.7,   14.0,   0.00,   0.00, 1010.9,    0.4, -999.0
13-08-2023, 00:10:06,    218,    0.4,   13.9,   0.00,   0.00, 1010.9,    0.3, -999.0
13-08-2023, 00:10:16,    216,    0.7,   13.9,   0.00,   0.00, 1010.9,    0.3, -999.0
13-08-2023, 00:10:26,    213,    1.0,   13.9,   0.00,   0.00, 1010.9,    0.3, -999.0
13-08-2023, 00:10:36,    199,    1.4,   14.0,   0.00,   0.00, 1010.9,    0.3, -999.0
13-08-2023, 00:10:46,    217,    0.7,   13.9,   0.00,   0.00, 1010.9,    0.3, -999.0
13-08-2023, 00:10:56,    212,    1.1,   13.9,   0.00,   0.00, 1010.9,    0.4, -999.0
13-08-2023, 00:11:06,    213,    0.9,   13.9,   0.00,   0.00, 1010.8,    0.2, -999.0
13-08-2023, 00:11:16,    213,    0.0,   13.9,   0.00,   0.00, 1010.8,    0.2, -999.0
13-08-2023, 00:11:26,    213,    0.5,   13.9,   0.00,   0.00, 1010.8,    0.2, -999.0
13-08-2023, 00:11:36,    213,    0.3,   13.9,   0.00,   0.00, 1010.8,    0.3, -999.0
13-08-2023, 00:11:46,    213,    0.0,   13.9,   0.00,   0.00, 1010.8,    0.4, -999.0
13-08-2023, 00:11:56,    213,    0.0,   13.8,   0.00,   0.00, 1010.7,    0.2, -999.0
13-08-2023, 00:12:06,    194,    0.4,   13.8,   0.00,   0.00, 1010.8,    0.3, -999.0
13-08-2023, 00:12:16,    194,    0.1,   13.8,   0.00,   0.00, 1010.8,    0.3, -999.0
13-08-2023, 00:12:26,    194,    0.5,   13.8,   0.00,   0.00, 1010.8,    0.3, -999.0
13-08-2023, 00:12:36,    196,    1.4,   13.9,   0.00,   0.00, 1010.9,    0.3, -999.0
13-08-2023, 00:12:46,    195,    0.3,   13.9,   0.00,   0.00, 1010.8,    0.2, -999.0
13-08-2023, 00:12:56,    195,    0.0,   13.8,   0.00,   0.00, 1010.7,    0.2, -999.0
13-08-2023, 00:13:06,    225,    0.4,   13.8,   0.00,   0.00, 1010.8,    0.3, -999.0
13-08-2023, 00:13:16,    178,    1.5,   13.9,   0.00,   0.00, 1010.8,    0.4, -999.0
13-08-2023, 00:13:25,    186,    0.6,   13.9,   0.00,   0.00, 1010.8,    0.3, -999.0
13-08-2023, 00:13:36,    187,    0.3,   13.8,   0.00,   0.00, 1010.8,    0.1, -999.0
13-08-2023, 00:13:46,    188,    0.1,   13.7,   0.00,   0.00, 1010.7,    0.4, -999.0
13-08-2023, 00:13:56,    189,    0.8,   13.8,   0.00,   0.00, 1010.9,    0.3, -999.0
13-08-2023, 00:14:05,    189,    0.5,   13.9,   0.00,   0.00, 1010.9,    0.3, -999.0
13-08-2023, 00:14:16,    207,    1.4,   13.8,   0.00,   0.00, 1010.9,    0.3, -999.0
13-08-2023, 00:14:26,    203,    0.6,   13.8,   0.00,   0.00, 1010.9,    0.4, -999.0
13-08-2023, 00:14:35,    190,    0.6,   13.8,   0.00,   0.00, 1010.8,    0.3, -999.0
13-08-2023, 00:14:46,    189,    0.9,   13.8,   0.00,   0.00, 1010.9,    0.2, -999.0
13-08-2023, 00:14:56,    199,    1.6,   13.8,   0.00,   0.00, 1010.9,    0.3, -999.0
13-08-2023, 00:15:05,    193,    1.8,   13.8,   0.00,   0.00, 1010.9,    0.2, -999.0
13-08-2023, 00:15:15,    216,    1.1,   13.8,   0.00,   0.00, 1010.9,    0.3, -999.0
13-08-2023, 00:15:26,    216,    1.1,   13.8,   0.00,   0.00, 1010.9,    0.2, -999.0
13-08-2023, 00:15:35,    216,    0.8,   13.8,   0.00,   0.00, 1010.9,    0.3, -999.0
13-08-2023, 00:15:45,    214,    1.3,   13.8,   0.00,   0.00, 1010.8,    0.3, -999.0
13-08-2023, 00:15:55,    214,    1.6,   13.8,   0.00,   0.00, 1010.9,    0.3, -999.0
13-08-2023, 00:16:06,    212,    0.7,   13.8,   0.00,   0.00, 1010.9,    0.2, -999.0
13-08-2023, 00:16:15,    213,    0.0,   13.7,   0.00,   0.00, 1010.8,    0.2, -999.0
13-08-2023, 00:16:25,    212,    0.0,   13.7,   0.00,   0.00, 1010.8,    0.2, -999.0
13-08-2023, 00:16:35,    212,    0.0,   13.7,   0.00,   0.00, 1010.7,    0.1, -999.0
13-08-2023, 00:16:45,    212,    0.0,   13.6,   0.00,   0.00, 1010.7,    0.3, -999.0
13-08-2023, 00:16:55,    212,    0.0,   13.7,   0.00,   0.00, 1010.8,    0.3, -999.0
13-08-2023, 00:17:05,    212,    0.0,   13.7,   0.00,   0.00, 1010.8,    0.2, -999.0
13-08-2023, 00:17:15,    212,    0.0,   13.7,   0.00,   0.00, 1010.8,    0.3, -999.0
13-08-2023, 00:17:25,    189,    0.2,   13.7,   0.00,   0.00, 1010.8,    0.6, -999.0
13-08-2023, 00:17:35,    215,    1.9,   13.8,   0.00,   0.00, 1010.9,    0.3, -999.0
13-08-2023, 00:17:45,    213,    2.2,   13.7,   0.00,   0.00, 1010.9,    0.2, -999.0
13-08-2023, 00:17:55,    230,    2.1,   13.7,   0.00,   0.00, 1010.9,    0.2, -999.0
13-08-2023, 00:18:05,    233,    0.9,   13.8,   0.00,   0.00, 1010.9,    0.5, -999.0
13-08-2023, 00:18:15,    217,    2.3,   13.8,   0.00,   0.00, 1010.9,    0.4, -999.0
13-08-2023, 00:18:25,    195,    1.8,   13.8,   0.00,   0.00, 1010.9,    0.3, -999.0
13-08-2023, 00:18:35,    192,    0.6,   13.8,   0.00,   0.00, 1010.9,    0.5, -999.0
13-08-2023, 00:18:45,    193,    0.2,   13.7,   0.00,   0.00, 1010.9,    0.4, -999.0
13-08-2023, 00:18:55,    197,    1.1,   13.7,   0.00,   0.00, 1010.9,    0.3, -999.0
13-08-2023, 00:19:05,    198,    0.4,   13.7,   0.00,   0.00, 1010.9,    0.0, -999.0
13-08-2023, 00:19:15,    213,    0.4,   13.6,   0.00,   0.00, 1010.9,    0.1, -999.0
13-08-2023, 00:19:25,    217,    1.3,   13.7,   0.00,   0.00, 1010.9,    0.6, -999.0
13-08-2023, 00:19:35,    218,    0.7,   13.7,   0.00,   0.00, 1010.9,    0.1, -999.0
13-08-2023, 00:19:45,    217,    0.4,   13.7,   0.00,   0.00, 1010.9,    0.2, -999.0
13-08-2023, 00:19:55,    188,    1.0,   13.7,   0.00,   0.00, 1010.9,    0.3, -999.0
13-08-2023, 00:20:05,    187,    0.1,   13.6,   0.00,   0.00, 1010.8,    0.2, -999.0
13-08-2023, 00:20:15,    188,    0.0,   13.6,   0.00,   0.00, 1010.8,    0.3, -999.0
13-08-2023, 00:20:25,    188,    0.0,   13.6,   0.00,   0.00, 1010.8,    0.2, -999.0
13-08-2023, 00:20:35,    188,    0.0,   13.5,   0.00,   0.00, 1010.8,    0.2, -999.0
13-08-2023, 00:20:45,    187,    0.0,   13.5,   0.00,   0.00, 1010.8,    0.3, -999.0
13-08-2023, 00:20:55,    187,    0.0,   13.6,   0.00,   0.00, 1010.8,    0.3, -999.0
13-08-2023, 00:21:04,    188,    0.0,   13.6,   0.00,   0.00, 1010.8,    0.3, -999.0
13-08-2023, 00:21:15,    230,    0.8,   13.6,   0.00,   0.00, 1010.9,    0.2, -999.0
13-08-2023, 00:21:25,    228,    1.3,   13.6,   0.00,   0.00, 1010.9,    0.3, -999.0
13-08-2023, 00:21:35,    223,    1.0,   13.7,   0.00,   0.00, 1010.9,    0.4, -999.0
13-08-2023, 00:21:44,    221,    0.6,   13.7,   0.00,   0.00, 1010.9,    0.3, -999.0
13-08-2023, 00:21:55,    219,    1.5,   13.7,   0.00,   0.00, 1010.9,    0.4, -999.0
13-08-2023, 00:22:05,    217,    1.2,   13.7,   0.00,   0.00, 1010.9,    0.2, -999.0
13-08-2023, 00:22:14,    216,    0.8,   13.7,   0.00,   0.00, 1010.9,    0.1, -999.0
13-08-2023, 00:22:24,    214,    0.2,   13.6,   0.00,   0.00, 1010.8,    0.3, -999.0
13-08-2023, 00:22:35,    211,    0.4,   13.6,   0.00,   0.00, 1010.9,    0.3, -999.0
13-08-2023, 00:22:44,    211,    0.0,   13.6,   0.00,   0.00, 1010.8,    0.2, -999.0
13-08-2023, 00:22:54,    211,    0.0,   13.6,   0.00,   0.00, 1010.8,    0.2, -999.0
13-08-2023, 00:23:04,    211,    0.0,   13.6,   0.00,   0.00, 1010.8,    0.2, -999.0
13-08-2023, 00:23:14,    193,    0.2,   13.6,   0.00,   0.00, 1010.8,    0.3, -999.0
13-08-2023, 00:23:24,    204,    0.9,   13.6,   0.00,   0.00, 1010.9,    0.2, -999.0
13-08-2023, 00:23:34,    213,    0.7,   13.6,   0.00,   0.00, 1010.9,    0.3, -999.0
13-08-2023, 00:23:45,    213,    0.0,   13.5,   0.00,   0.00, 1010.8,    0.3, -999.0
13-08-2023, 00:23:54,    213,    0.0,   13.5,   0.00,   0.00, 1010.8,    0.2, -999.0
13-08-2023, 00:24:04,    213,    0.0,   13.5,   0.00,   0.00, 1010.8,    0.3, -999.0
13-08-2023, 00:24:14,    213,    0.0,   13.6,   0.00,   0.00, 1010.8,    0.2, -999.0
13-08-2023, 00:24:24,    213,    0.0,   13.4,   0.00,   0.00, 1010.8,    0.3, -999.0
13-08-2023, 00:24:34,    213,    0.0,   13.5,   0.00,   0.00, 1010.8,    0.1, -999.0
13-08-2023, 00:24:44,    213,    0.0,   13.6,   0.00,   0.00, 1010.8,    0.3, -999.0
13-08-2023, 00:24:54,    206,    1.1,   13.6,   0.00,   0.00, 1010.9,    0.2, -999.0
13-08-2023, 00:25:04,    235,    1.5,   13.6,   0.00,   0.00, 1010.9,    0.5, -999.0
13-08-2023, 00:25:14,    208,    0.7,   13.7,   0.00,   0.00, 1010.9,    0.3, -999.0
13-08-2023, 00:25:24,    216,    0.3,   13.6,   0.00,   0.00, 1010.9,    0.3, -999.0
13-08-2023, 00:25:34,    215,    0.0,   13.6,   0.00,   0.00, 1010.8,    0.3, -999.0
13-08-2023, 00:25:44,    216,    0.0,   13.5,   0.00,   0.00, 1010.8,    0.2, -999.0
13-08-2023, 00:25:54,    215,    0.0,   13.5,   0.00,   0.00, 1010.8,    0.2, -999.0
13-08-2023, 00:26:04,    215,    0.0,   13.5,   0.00,   0.00, 1010.8,    0.2, -999.0
13-08-2023, 00:26:14,    221,    0.1,   13.6,   0.00,   0.00, 1010.8,    0.1, -999.0
13-08-2023, 00:26:24,    174,    0.6,   13.6,   0.00,   0.00, 1010.8,    0.1, -999.0
13-08-2023, 00:26:34,    187,    1.2,   13.6,   0.00,   0.00, 1010.9,    0.4, -999.0
13-08-2023, 00:26:44,    188,    0.0,   13.5,   0.00,   0.00, 1010.8,    0.2, -999.0
13-08-2023, 00:26:54,    188,    0.0,   13.5,   0.00,   0.00, 1010.8,    0.2, -999.0
13-08-2023, 00:27:04,    188,    0.0,   13.5,   0.00,   0.00, 1010.8,    0.2, -999.0
13-08-2023, 00:27:14,    188,    0.0,   13.5,   0.00,   0.00, 1010.8,    0.2, -999.0
13-08-2023, 00:27:24,    200,    0.3,   13.4,   0.00,   0.00, 1010.8,    0.5, -999.0
13-08-2023, 00:27:34,    220,    1.9,   13.6,   0.00,   0.00, 1010.9,    0.2, -999.0
13-08-2023, 00:27:44,    192,    2.1,   13.6,   0.00,   0.00, 1010.9,    0.4, -999.0
13-08-2023, 00:27:54,    188,    0.3,   13.6,   0.00,   0.00, 1010.9,    0.3, -999.0
13-08-2023, 00:28:04,    213,    0.3,   13.6,   0.00,   0.00, 1010.9,    0.3, -999.0
13-08-2023, 00:28:14,    213,    0.1,   13.5,   0.00,   0.00, 1010.8,    0.2, -999.0
13-08-2023, 00:28:24,    214,    0.9,   13.6,   0.00,   0.00, 1010.9,    0.4, -999.0
13-08-2023, 00:28:34,    208,    0.8,   13.6,   0.00,   0.00, 1010.9,    0.3, -999.0
13-08-2023, 00:28:44,    207,    0.4,   13.6,   0.00,   0.00, 1010.9,    0.2, -999.0
13-08-2023, 00:28:54,    207,    0.0,   13.5,   0.00,   0.00, 1010.8,    0.3, -999.0
13-08-2023, 00:29:04,    208,    0.0,   13.5,   0.00,   0.00, 1010.8,    0.1, -999.0
13-08-2023, 00:29:14,    201,    0.0,   13.5,   0.00,   0.00, 1010.8,    0.4, -999.0
13-08-2023, 00:29:23,    201,    0.1,   13.6,   0.00,   0.00, 1010.8,    0.1, -999.0
13-08-2023, 00:29:34,    201,    0.0,   13.4,   0.00,   0.00, 1010.8,    0.3, -999.0
13-08-2023, 00:29:44,    202,    0.0,   13.3,   0.00,   0.00, 1010.8,    0.3, -999.0
13-08-2023, 00:29:53,    201,    0.0,   13.5,   0.00,   0.00, 1010.8,    0.4, -999.0
13-08-2023, 00:30:03,    201,    0.0,   13.5,   0.00,   0.00, 1010.8,    0.3, -999.0
13-08-2023, 00:30:14,    201,    0.0,   13.5,   0.00,   0.00, 1010.8,    0.2, -999.0
13-08-2023, 00:30:23,    201,    0.1,   13.5,   0.00,   0.00, 1010.9,    0.1, -999.0
13-08-2023, 00:30:33,    201,    0.0,   13.5,   0.00,   0.00, 1010.8,    0.3, -999.0
13-08-2023, 00:30:43,    201,    0.0,   13.5,   0.00,   0.00, 1010.8,    0.2, -999.0
13-08-2023, 00:30:54,    201,    0.0,   13.5,   0.00,   0.00, 1010.8,    0.4, -999.0
13-08-2023, 00:31:03,    201,    0.0,   13.3,   0.00,   0.00, 1010.8,    0.2, -999.0
13-08-2023, 00:31:13,    194,    0.8,   13.5,   0.00,   0.00, 1010.9,    0.4, -999.0
13-08-2023, 00:31:23,    220,    1.0,   13.4,   0.00,   0.00, 1010.9,    0.3, -999.0
13-08-2023, 00:31:33,    219,    0.2,   13.5,   0.00,   0.00, 1010.8,    0.3, -999.0
13-08-2023, 00:31:43,    219,    0.0,   13.4,   0.00,   0.00, 1010.8,    0.2, -999.0
13-08-2023, 00:31:53,    219,    0.0,   13.4,   0.00,   0.00, 1010.8,    0.3, -999.0
13-08-2023, 00:32:03,    218,    0.0,   13.4,   0.00,   0.00, 1010.8,    0.5, -999.0
13-08-2023, 00:32:13,    218,    0.0,   13.4,   0.00,   0.00, 1010.8,    0.4, -999.0
13-08-2023, 00:32:23,    197,    0.2,   13.4,   0.00,   0.00, 1010.8,    0.1, -999.0
13-08-2023, 00:32:33,    194,    1.4,   13.5,   0.00,   0.00, 1010.9,    0.3, -999.0
13-08-2023, 00:32:43,    193,    0.2,   13.5,   0.00,   0.00, 1010.8,    0.3, -999.0
13-08-2023, 00:32:53,    194,    0.0,   13.4,   0.00,   0.00, 1010.8,    0.2, -999.0
13-08-2023, 00:33:03,    194,    0.0,   13.4,   0.00,   0.00, 1010.8,    0.2, -999.0
13-08-2023, 00:33:13,    194,    0.0,   13.4,   0.00,   0.00, 1010.8,    0.2, -999.0
13-08-2023, 00:33:23,    168,    0.1,   13.3,   0.00,   0.00, 1010.8,    0.1, -999.0
13-08-2023, 00:33:33,    169,    1.6,   13.5,   0.00,   0.00, 1010.9,    0.3, -999.0
13-08-2023, 00:33:43,    171,    0.3,   13.5,   0.00,   0.00, 1010.9,    0.3, -999.0
13-08-2023, 00:33:53,    199,    0.2,   13.5,   0.00,   0.00, 1010.9,    0.4, -999.0
13-08-2023, 00:34:03,    199,    0.1,   13.5,   0.00,   0.00, 1010.8,    0.2, -999.0
13-08-2023, 00:34:13,    199,    0.3,   13.5,   0.00,   0.00, 1010.9,    0.5, -999.0
13-08-2023, 00:34:23,    202,    1.0,   13.5,   0.00,   0.00, 1010.9,    0.3, -999.0
13-08-2023, 00:34:33,    203,    0.6,   13.5,   0.00,   0.00, 1010.9,    0.4, -999.0
13-08-2023, 00:34:43,    199,    0.5,   13.5,   0.00,   0.00, 1010.9,    0.3, -999.0
13-08-2023, 00:34:53,    168,    0.4,   13.6,   0.00,   0.00, 1010.9,    0.2, -999.0
13-08-2023, 00:35:03,    165,    0.0,   13.4,   0.00,   0.00, 1010.7,    0.2, -999.0
13-08-2023, 00:35:13,    234,    0.6,   13.5,   0.00,   0.00, 1010.9,    0.4, -999.0
13-08-2023, 00:35:23,    228,    0.3,   13.5,   0.00,   0.00, 1010.9,    0.3, -999.0
13-08-2023, 00:35:33,    227,    0.0,   13.4,   0.00,   0.00, 1010.8,    0.3, -999.0
13-08-2023, 00:35:43,    227,    0.0,   13.4,   0.00,   0.00, 1010.8,    0.2, -999.0
13-08-2023, 00:35:53,    228,    0.0,   13.4,   0.00,   0.00, 1010.8,    0.3, -999.0
13-08-2023, 00:36:03,    227,    0.0,   13.4,   0.00,   0.00, 1010.8,    0.1, -999.0
13-08-2023, 00:36:13,    195,    0.7,   13.4,   0.00,   0.00, 1010.9,    0.3, -999.0
13-08-2023, 00:36:23,    209,    1.7,   13.5,   0.00,   0.00, 1010.9,    0.2, -999.0
13-08-2023, 00:36:32,    226,    1.7,   13.5,   0.00,   0.00, 1010.9,    0.3, -999.0
13-08-2023, 00:36:43,    206,    1.1,   13.5,   0.00,   0.00, 1010.9,    0.5, -999.0
13-08-2023, 00:36:53,    200,    1.1,   13.5,   0.00,   0.00, 1010.9,    0.4, -999.0
13-08-2023, 00:37:02,    214,    1.5,   13.5,   0.00,   0.00, 1010.9,    0.3, -999.0
13-08-2023, 00:37:12,    200,    1.3,   13.5,   0.00,   0.00, 1010.9,    0.3, -999.0
13-08-2023, 00:37:23,    166,    2.0,   13.5,   0.00,   0.00, 1010.9,    0.3, -999.0
13-08-2023, 00:37:32,    166,    0.7,   13.5,   0.00,   0.00, 1010.9,    0.2, -999.0
13-08-2023, 00:37:42,    166,    0.0,   13.4,   0.00,   0.00, 1010.8,    0.2, -999.0
13-08-2023, 00:37:53,    170,    0.2,   13.4,   0.00,   0.00, 1010.8,    0.3, -999.0
13-08-2023, 00:38:03,    173,    0.3,   13.4,   0.00,   0.00, 1010.9,    0.3, -999.0
13-08-2023, 00:38:12,    206,    0.4,   13.4,   0.00,   0.00, 1010.8,    0.3, -999.0
13-08-2023, 00:38:22,    205,    0.0,   13.3,   0.00,   0.00, 1010.8,    0.2, -999.0
13-08-2023, 00:38:33,    204,    0.0,   13.3,   0.00,   0.00, 1010.7,    0.2, -999.0
13-08-2023, 00:38:42,    203,    0.2,   13.4,   0.00,   0.00, 1010.8,    0.2, -999.0
13-08-2023, 00:38:52,    202,    0.3,   13.4,   0.00,   0.00, 1010.8,    0.3, -999.0
13-08-2023, 00:39:02,    203,    0.0,   13.4,   0.00,   0.00, 1010.8,    0.3, -999.0
13-08-2023, 00:39:12,    202,    0.0,   13.3,   0.00,   0.00, 1010.7,    0.2, -999.0
13-08-2023, 00:39:22,    202,    0.0,   13.3,   0.00,   0.00, 1010.7,    0.3, -999.0
13-08-2023, 00:39:32,    202,    0.0,   13.3,   0.00,   0.00, 1010.7,    0.2, -999.0
13-08-2023, 00:39:42,    202,    0.0,   13.3,   0.00,   0.00, 1010.8,    0.2, -999.0
13-08-2023, 00:39:52,    201,    0.4,   13.4,   0.00,   0.00, 1010.8,    0.4, -999.0
13-08-2023, 00:40:02,    218,    1.1,   13.5,   0.00,   0.00, 1010.8,    0.3, -999.0
13-08-2023, 00:40:12,    218,    0.9,   13.5,   0.00,   0.00, 1010.8,    0.3, -999.0
13-08-2023, 00:40:22,    218,    0.1,   13.4,   0.00,   0.00, 1010.7,    0.4, -999.0
13-08-2023, 00:40:32,    203,    0.0,   13.4,   0.00,   0.00, 1010.7,    0.3, -999.0
13-08-2023, 00:40:42,    203,    0.0,   13.3,   0.00,   0.00, 1010.7,    0.4, -999.0
13-08-2023, 00:40:52,    203,    0.0,   13.3,   0.00,   0.00, 1010.7,    0.2, -999.0
13-08-2023, 00:41:02,    203,    0.3,   13.4,   0.00,   0.00, 1010.7,    0.2, -999.0
13-08-2023, 00:41:12,    203,    0.1,   13.4,   0.00,   0.00, 1010.8,    0.3, -999.0
13-08-2023, 00:41:22,    202,    0.0,   13.3,   0.00,   0.00, 1010.7,    0.5, -999.0
13-08-2023, 00:41:32,    203,    0.0,   13.3,   0.00,   0.00, 1010.7,    0.2, -999.0
13-08-2023, 00:41:42,    215,    0.3,   13.4,   0.00,   0.00, 1010.8,    0.3, -999.0
13-08-2023, 00:41:52,    216,    1.4,   13.4,   0.00,   0.00, 1010.8,    0.4, -999.0
13-08-2023, 00:42:02,    184,    1.5,   13.4,   0.00,   0.00, 1010.8,    0.3, -999.0
13-08-2023, 00:42:12,    182,    0.4,   13.4,   0.00,   0.00, 1010.8,    0.3, -999.0
13-08-2023, 00:42:22,    205,    0.9,   13.3,   0.00,   0.00, 1010.8,    0.2, -999.0
13-08-2023, 00:42:32,    222,    1.6,   13.4,   0.00,   0.00, 1010.8,    0.3, -999.0
13-08-2023, 00:42:42,    217,    0.4,   13.4,   0.00,   0.00, 1010.8,    0.4, -999.0
13-08-2023, 00:42:52,    217,    0.4,   13.3,   0.00,   0.00, 1010.8,    0.3, -999.0
13-08-2023, 00:43:02,    216,    0.0,   13.3,   0.00,   0.00, 1010.7,    0.2, -999.0
13-08-2023, 00:43:12,    217,    0.0,   13.2,   0.00,   0.00, 1010.7,    0.2, -999.0
13-08-2023, 00:43:22,    222,    0.3,   13.4,   0.00,   0.00, 1010.8,    0.2, -999.0
13-08-2023, 00:43:31,    193,    1.6,   13.4,   0.00,   0.00, 1010.8,    0.2, -999.0
13-08-2023, 00:43:42,    192,    0.1,   13.3,   0.00,   0.00, 1010.7,    0.2, -999.0
13-08-2023, 00:43:52,    192,    0.1,   13.3,   0.00,   0.00, 1010.7,    0.1, -999.0
13-08-2023, 00:44:02,    194,    0.5,   13.3,   0.00,   0.00, 1010.8,    0.3, -999.0
13-08-2023, 00:44:11,    219,    1.3,   13.4,   0.00,   0.00, 1010.8,    0.2, -999.0
13-08-2023, 00:44:22,    200,    1.4,   13.4,   0.00,   0.00, 1010.8,    0.2, -999.0
13-08-2023, 00:44:32,    185,    2.0,   13.4,   0.00,   0.00, 1010.8,    0.3, -999.0
13-08-2023, 00:44:41,    194,    1.0,   13.4,   0.00,   0.00, 1010.8,    0.3, -999.0
13-08-2023, 00:44:52,    228,    0.4,   13.3,   0.00,   0.00, 1010.7,    0.3, -999.0
13-08-2023, 00:45:02,    223,    1.9,   13.4,   0.00,   0.00, 1010.8,    0.4, -999.0
13-08-2023, 00:45:11,    219,    0.7,   13.4,   0.00,   0.00, 1010.8,    0.3, -999.0
13-08-2023, 00:45:21,    219,    0.3,   13.4,   0.00,   0.00, 1010.8,    0.3, -999.0
13-08-2023, 00:45:32,    218,    0.0,   13.3,   0.00,   0.00, 1010.7,    0.3, -999.0
13-08-2023, 00:45:42,    192,    1.4,   13.3,   0.00,   0.00, 1010.8,    0.2, -999.0
13-08-2023, 00:45:51,    191,    1.6,   13.4,   0.00,   0.00, 1010.9,    0.3, -999.0
13-08-2023, 00:46:01,    218,    1.1,   13.4,   0.00,   0.00, 1010.9,    0.3, -999.0
13-08-2023, 00:46:12,    230,    0.6,   13.3,   0.00,   0.00, 1010.8,    0.2, -999.0
13-08-2023, 00:46:21,    168,    0.0,   13.2,   0.00,   0.00, 1010.7,    0.2, -999.0
13-08-2023, 00:46:31,    140,    0.0,   13.3,   0.00,   0.00, 1010.7,    0.2, -999.0
13-08-2023, 00:46:41,    143,    0.0,   13.3,   0.00,   0.00, 1010.7,    0.2, -999.0
13-08-2023, 00:46:51,    158,    0.3,   13.3,   0.00,   0.00, 1010.8,    0.3, -999.0